Time,TemperatureF,DewpointF,PressureIn,WindDirection,WindDirectionDegrees,WindSpeedMPH,WindSpeedGustMPH,Humidity,HourlyPrecipIn,Conditions,Clouds,dailyrainin,SolarRadiationWatts/m^2,SoftwareType,DateUTC
2013-01-17 00:03:00,5.0,-2.3,30.33,SW,219,1.0,0.0,71,0.00,,,0.00,0,WeatherHawk,2013-01-17 07:03:00,
2013-01-17 00:08:00,5.2,-1.8,30.34,ESE,114,1.0,0.0,72,0.00,,,0.00,2,WeatherHawk,2013-01-17 07:08:00,
2013-01-17 00:13:00,5.0,-1.7,30.34,South,188,1.0,0.0,73,0.00,,,0.00,1,WeatherHawk,2013-01-17 07:13:00,
2013-01-17 00:18:00,4.8,-1.9,30.34,WNW,300,1.0,0.0,73,0.00,,,0.00,0,WeatherHawk,2013-01-17 07:18:00,
2013-01-17 00:23:00,4.6,-2.4,30.34,ENE,65,1.0,0.0,72,0.00,,,0.00,0,WeatherHawk,2013-01-17 07:23:00,
2013-01-17 00:28:00,5.0,-0.1,30.33,East,89,2.0,0.0,79,0.00,,,0.00,0,WeatherHawk,2013-01-17 07:28:00,
2013-01-17 00:33:00,5.5,0.2,30.33,East,87,1.0,0.0,78,0.00,,,0.00,0,WeatherHawk,2013-01-17 07:33:00,
2013-01-17 00:38:00,5.5,-0.6,30.33,NNW,328,1.0,0.0,75,0.00,,,0.00,0,WeatherHawk,2013-01-17 07:38:00,
2013-01-17 00:43:00,6.1,-0.4,30.34,WSW,249,1.0,0.0,74,0.00,,,0.00,0,WeatherHawk,2013-01-17 07:43:00,
2013-01-17 00:48:00,5.2,-2.1,30.34,ESE,108,2.0,0.0,71,0.00,,,0.00,0,WeatherHawk,2013-01-17 07:48:00,
2013-01-17 00:53:00,5.0,-0.6,30.34,ENE,71,1.0,0.0,77,0.00,,,0.00,0,WeatherHawk,2013-01-17 07:53:00,
2013-01-17 00:58:00,5.5,0.5,30.34,ESE,105,1.0,0.0,79,0.00,,,0.00,0,WeatherHawk,2013-01-17 07:58:00,
2013-01-17 01:03:00,5.0,-2.9,30.34,SE,130,1.0,0.0,69,0.00,,,0.00,0,WeatherHawk,2013-01-17 08:03:00,
2013-01-17 01:08:00,3.6,-3.4,30.34,ESE,118,2.0,0.0,72,0.00,,,0.00,0,WeatherHawk,2013-01-17 08:08:00,
2013-01-17 01:13:00,3.9,-2.2,30.34,SE,126,1.0,0.0,75,0.00,,,0.00,1,WeatherHawk,2013-01-17 08:13:00,
2013-01-17 01:18:00,4.5,-1.4,30.34,ENE,78,2.0,0.0,76,0.00,,,0.00,0,WeatherHawk,2013-01-17 08:18:00,
2013-01-17 01:23:00,5.5,1.0,30.34,ENE,74,2.0,0.0,81,0.00,,,0.00,0,WeatherHawk,2013-01-17 08:23:00,
2013-01-17 01:28:00,6.1,-1.6,30.34,SSW,200,1.0,0.0,70,0.00,,,0.00,0,WeatherHawk,2013-01-17 08:28:00,
2013-01-17 01:33:00,4.1,-2.9,30.34,WSW,237,1.0,0.0,72,0.00,,,0.00,0,WeatherHawk,2013-01-17 08:33:00,
2013-01-17 01:38:00,3.9,-2.8,30.34,NNE,14,2.0,0.0,73,0.00,,,0.00,0,WeatherHawk,2013-01-17 08:38:00,
2013-01-17 01:43:00,4.5,-2.0,30.34,NNE,17,1.0,0.0,74,0.00,,,0.00,1,WeatherHawk,2013-01-17 08:43:00,
2013-01-17 01:48:00,4.8,-1.3,30.34,East,92,1.0,0.0,75,0.00,,,0.00,0,WeatherHawk,2013-01-17 08:48:00,
2013-01-17 01:53:00,4.5,-2.3,30.34,SE,127,1.0,0.0,73,0.00,,,0.00,0,WeatherHawk,2013-01-17 08:53:00,
2013-01-17 01:58:00,5.4,0.6,30.34,ENE,65,2.0,0.0,80,0.00,,,0.00,0,WeatherHawk,2013-01-17 08:58:00,
2013-01-17 02:03:00,5.5,-0.1,30.34,East,81,1.0,0.0,77,0.00,,,0.00,0,WeatherHawk,2013-01-17 09:03:00,
2013-01-17 02:08:00,5.4,-1.7,30.34,SW,216,0.0,0.0,72,0.00,,,0.00,0,WeatherHawk,2013-01-17 09:08:00,
2013-01-17 02:13:00,4.6,-2.1,30.35,NNW,348,2.0,0.0,73,0.00,,,0.00,0,WeatherHawk,2013-01-17 09:13:00,
2013-01-17 02:18:00,5.0,-2.6,30.35,SW,218,1.0,0.0,70,0.00,,,0.00,0,WeatherHawk,2013-01-17 09:18:00,
2013-01-17 02:23:00,4.1,-3.2,30.35,SSE,166,1.0,0.0,71,0.00,,,0.00,0,WeatherHawk,2013-01-17 09:23:00,
2013-01-17 02:28:00,2.8,-3.8,30.34,ENE,72,2.0,0.0,73,0.00,,,0.00,0,WeatherHawk,2013-01-17 09:28:00,
2013-01-17 02:33:00,4.8,-0.2,30.34,ENE,62,1.0,0.0,79,0.00,,,0.00,0,WeatherHawk,2013-01-17 09:33:00,
2013-01-17 02:38:00,5.5,0.7,30.34,ENE,60,1.0,0.0,80,0.00,,,0.00,0,WeatherHawk,2013-01-17 09:38:00,
2013-01-17 02:43:00,5.5,-1.8,30.34,SE,132,1.0,0.0,71,0.00,,,0.00,0,WeatherHawk,2013-01-17 09:43:00,
2013-01-17 02:48:00,3.4,-3.6,30.34,East,80,1.0,0.0,72,0.00,,,0.00,0,WeatherHawk,2013-01-17 09:48:00,
2013-01-17 02:53:00,4.5,-0.1,30.34,ESE,104,2.0,0.0,81,0.00,,,0.00,0,WeatherHawk,2013-01-17 09:53:00,
2013-01-17 02:58:00,5.2,-1.3,30.34,West,280,1.0,0.0,74,0.00,,,0.00,0,WeatherHawk,2013-01-17 09:58:00,
2013-01-17 03:03:00,3.9,-3.6,30.34,South,186,1.0,0.0,70,0.00,,,0.00,0,WeatherHawk,2013-01-17 10:03:00,
2013-01-17 03:08:00,3.6,-2.6,30.34,North,11,1.0,0.0,75,0.00,,,0.00,0,WeatherHawk,2013-01-17 10:08:00,
2013-01-17 03:13:00,4.5,-2.0,30.34,ENE,71,1.0,0.0,74,0.00,,,0.00,0,WeatherHawk,2013-01-17 10:13:00,
2013-01-17 03:18:00,4.3,-2.7,30.34,ESE,102,1.0,0.0,72,0.00,,,0.00,0,WeatherHawk,2013-01-17 10:18:00,
2013-01-17 03:23:00,3.7,-3.5,30.34,North,356,1.0,0.0,71,0.00,,,0.00,0,WeatherHawk,2013-01-17 10:23:00,
2013-01-17 03:28:00,4.1,-1.5,30.34,NE,38,2.0,0.0,77,0.00,,,0.00,0,WeatherHawk,2013-01-17 10:28:00,
2013-01-17 03:33:00,4.3,-3.0,30.34,SSE,158,1.0,0.0,71,0.00,,,0.00,0,WeatherHawk,2013-01-17 10:33:00,
2013-01-17 03:38:00,3.2,-3.5,30.34,East,85,1.0,0.0,73,0.00,,,0.00,0,WeatherHawk,2013-01-17 10:38:00,
2013-01-17 03:43:00,3.7,-1.8,30.34,NNE,31,2.0,0.0,77,0.00,,,0.00,0,WeatherHawk,2013-01-17 10:43:00,
2013-01-17 03:48:00,4.1,-2.0,30.34,NNW,344,1.0,0.0,75,0.00,,,0.00,1,WeatherHawk,2013-01-17 10:48:00,
2013-01-17 03:53:00,3.9,-3.1,30.34,ESE,117,1.0,0.0,72,0.00,,,0.00,0,WeatherHawk,2013-01-17 10:53:00,
2013-01-17 03:58:00,2.7,-4.9,30.34,ESE,123,1.0,0.0,70,0.00,,,0.00,0,WeatherHawk,2013-01-17 10:58:00,
2013-01-17 04:03:00,2.3,-4.9,30.34,WSW,248,1.0,0.0,71,0.00,,,0.00,0,WeatherHawk,2013-01-17 11:03:00,
2013-01-17 04:08:00,3.2,-2.9,30.34,NW,304,1.0,0.0,75,0.00,,,0.00,0,WeatherHawk,2013-01-17 11:08:00,
2013-01-17 04:13:00,3.7,-2.7,30.34,ENE,74,1.0,0.0,74,0.00,,,0.00,0,WeatherHawk,2013-01-17 11:13:00,
2013-01-17 04:18:00,4.5,-1.1,30.34,East,81,1.0,0.0,77,0.00,,,0.00,0,WeatherHawk,2013-01-17 11:18:00,
2013-01-17 04:23:00,5.4,-0.5,30.34,ESE,122,1.0,0.0,76,0.00,,,0.00,0,WeatherHawk,2013-01-17 11:23:00,
2013-01-17 04:28:00,4.3,-3.6,30.34,SE,141,0.0,0.0,69,0.00,,,0.00,0,WeatherHawk,2013-01-17 11:28:00,
2013-01-17 04:33:00,4.1,-3.8,30.34,East,82,0.0,0.0,69,0.00,,,0.00,0,WeatherHawk,2013-01-17 11:33:00,
2013-01-17 04:38:00,3.4,-3.3,30.34,ESE,107,1.0,0.0,73,0.00,,,0.00,0,WeatherHawk,2013-01-17 11:38:00,
2013-01-17 04:43:00,3.7,-2.1,30.34,WNW,302,1.0,0.0,76,0.00,,,0.00,0,WeatherHawk,2013-01-17 11:43:00,
2013-01-17 04:48:00,3.9,-3.4,30.34,SE,124,1.0,0.0,71,0.00,,,0.00,0,WeatherHawk,2013-01-17 11:48:00,
2013-01-17 04:53:00,2.3,-4.9,30.34,ESE,105,2.0,0.0,71,0.00,,,0.00,0,WeatherHawk,2013-01-17 11:53:00,
2013-01-17 04:58:00,3.4,-2.5,30.34,SSE,156,1.0,0.0,76,0.00,,,0.00,0,WeatherHawk,2013-01-17 11:58:00,
2013-01-17 05:03:00,3.6,-1.7,30.34,East,87,2.0,0.0,78,0.00,,,0.00,0,WeatherHawk,2013-01-17 12:03:00,
2013-01-17 05:08:00,4.6,-0.1,30.34,ESE,108,2.0,0.0,80,0.00,,,0.00,0,WeatherHawk,2013-01-17 12:08:00,
2013-01-17 05:13:00,5.0,-1.7,30.34,WNW,302,0.0,0.0,73,0.00,,,0.00,0,WeatherHawk,2013-01-17 12:13:00,
2013-01-17 05:18:00,4.5,-3.7,30.34,NW,315,1.0,0.0,68,0.00,,,0.00,0,WeatherHawk,2013-01-17 12:18:00,
2013-01-17 05:23:00,3.7,-3.8,30.34,NNE,33,2.0,0.0,70,0.00,,,0.00,0,WeatherHawk,2013-01-17 12:23:00,
2013-01-17 05:28:00,3.9,-2.2,30.34,NE,46,1.0,0.0,75,0.00,,,0.00,0,WeatherHawk,2013-01-17 12:28:00,
2013-01-17 05:33:00,4.1,-2.9,30.34,SW,224,1.0,0.0,72,0.00,,,0.00,0,WeatherHawk,2013-01-17 12:33:00,
2013-01-17 05:38:00,3.6,-3.7,30.34,East,95,2.0,0.0,71,0.00,,,0.00,0,WeatherHawk,2013-01-17 12:38:00,
2013-01-17 05:43:00,3.2,-2.9,30.34,ESE,102,1.0,0.0,75,0.00,,,0.00,0,WeatherHawk,2013-01-17 12:43:00,
2013-01-17 05:48:00,3.9,-2.2,30.34,East,98,2.0,0.0,75,0.00,,,0.00,0,WeatherHawk,2013-01-17 12:48:00,
2013-01-17 05:53:00,2.8,-4.4,30.34,ESE,106,2.0,0.0,71,0.00,,,0.00,0,WeatherHawk,2013-01-17 12:53:00,
2013-01-17 05:58:00,2.8,-3.0,30.34,East,99,1.0,0.0,76,0.00,,,0.00,0,WeatherHawk,2013-01-17 12:58:00,
2013-01-17 06:03:00,3.2,-2.9,30.34,SW,218,1.0,0.0,75,0.00,,,0.00,0,WeatherHawk,2013-01-17 13:03:00,
2013-01-17 06:08:00,2.8,-4.1,30.34,ESE,120,2.0,0.0,72,0.00,,,0.00,0,WeatherHawk,2013-01-17 13:08:00,
2013-01-17 06:13:00,3.4,-3.0,30.34,ESE,113,2.0,0.0,74,0.00,,,0.00,0,WeatherHawk,2013-01-17 13:13:00,
2013-01-17 06:18:00,3.7,-2.4,30.34,East,85,1.0,0.0,75,0.00,,,0.00,0,WeatherHawk,2013-01-17 13:18:00,
2013-01-17 06:23:00,4.5,-1.1,30.34,East,89,1.0,0.0,77,0.00,,,0.00,0,WeatherHawk,2013-01-17 13:23:00,
2013-01-17 06:28:00,4.6,-1.0,30.34,ENE,68,1.0,0.0,77,0.00,,,0.00,0,WeatherHawk,2013-01-17 13:28:00,
2013-01-17 06:33:00,5.2,0.1,30.35,ENE,57,2.0,0.0,79,0.00,,,0.00,0,WeatherHawk,2013-01-17 13:33:00,
2013-01-17 06:38:00,5.0,-2.6,30.35,South,191,1.0,0.0,70,0.00,,,0.00,0,WeatherHawk,2013-01-17 13:38:00,
2013-01-17 06:43:00,2.7,-5.2,30.35,SE,130,1.0,0.0,69,0.00,,,0.00,0,WeatherHawk,2013-01-17 13:43:00,
2013-01-17 06:48:00,2.1,-4.5,30.35,SSE,147,1.0,0.0,73,0.00,,,0.00,0,WeatherHawk,2013-01-17 13:48:00,
2013-01-17 06:53:00,2.7,-3.7,30.35,ENE,60,1.0,0.0,74,0.00,,,0.00,0,WeatherHawk,2013-01-17 13:53:00,
2013-01-17 06:58:00,3.6,-2.3,30.35,East,97,1.0,0.0,76,0.00,,,0.00,0,WeatherHawk,2013-01-17 13:58:00,
2013-01-17 07:03:00,3.6,-2.6,30.35,East,93,1.0,0.0,75,0.00,,,0.00,0,WeatherHawk,2013-01-17 14:03:00,
2013-01-17 07:08:00,3.7,-1.8,30.35,NNE,15,1.0,0.0,77,0.00,,,0.00,0,WeatherHawk,2013-01-17 14:08:00,
2013-01-17 07:13:00,3.9,-3.9,30.35,WSW,242,0.0,0.0,69,0.00,,,0.00,1,WeatherHawk,2013-01-17 14:13:00,
2013-01-17 07:18:00,3.2,-4.3,30.35,East,101,1.0,0.0,70,0.00,,,0.00,1,WeatherHawk,2013-01-17 14:18:00,
2013-01-17 07:23:00,3.4,-2.7,30.35,East,96,1.0,0.0,75,0.00,,,0.00,0,WeatherHawk,2013-01-17 14:23:00,
2013-01-17 07:28:00,3.2,-4.3,30.36,SE,146,1.0,0.0,70,0.00,,,0.00,3,WeatherHawk,2013-01-17 14:28:00,
2013-01-17 07:33:00,2.3,-5.2,30.36,SSE,155,1.0,0.0,70,0.00,,,0.00,5,WeatherHawk,2013-01-17 14:33:00,
2013-01-17 07:38:00,2.1,-4.2,30.36,ENE,75,1.0,0.0,74,0.00,,,0.00,5,WeatherHawk,2013-01-17 14:38:00,
2013-01-17 07:43:00,3.2,-2.9,30.36,NW,326,2.0,0.0,75,0.00,,,0.00,6,WeatherHawk,2013-01-17 14:43:00,
2013-01-17 07:48:00,3.0,-3.6,30.36,ESE,109,2.0,0.0,73,0.00,,,0.00,6,WeatherHawk,2013-01-17 14:48:00,
2013-01-17 07:53:00,3.0,-3.6,30.36,North,358,1.0,0.0,73,0.00,,,0.00,7,WeatherHawk,2013-01-17 14:53:00,
2013-01-17 07:58:00,3.6,-2.8,30.37,ESE,107,1.0,0.0,74,0.00,,,0.00,9,WeatherHawk,2013-01-17 14:58:00,
2013-01-17 08:03:00,4.8,0.3,30.37,East,90,2.0,0.0,81,0.00,,,0.00,9,WeatherHawk,2013-01-17 15:03:00,
2013-01-17 08:08:00,5.7,-0.2,30.37,East,88,2.0,0.0,76,0.00,,,0.00,9,WeatherHawk,2013-01-17 15:08:00,
2013-01-17 08:13:00,5.5,-1.8,30.37,North,356,2.0,0.0,71,0.00,,,0.00,8,WeatherHawk,2013-01-17 15:13:00,
2013-01-17 08:18:00,5.2,-2.4,30.37,NNE,20,1.0,0.0,70,0.00,,,0.00,10,WeatherHawk,2013-01-17 15:18:00,
2013-01-17 08:23:00,5.4,-0.8,30.37,NE,49,2.0,0.0,75,0.00,,,0.00,9,WeatherHawk,2013-01-17 15:23:00,
2013-01-17 08:28:00,5.5,-1.8,30.37,South,186,1.0,0.0,71,0.00,,,0.00,10,WeatherHawk,2013-01-17 15:28:00,
2013-01-17 08:33:00,4.3,-2.4,30.37,ESE,123,1.0,0.0,73,0.00,,,0.00,12,WeatherHawk,2013-01-17 15:33:00,
2013-01-17 08:38:00,4.1,-2.9,30.37,East,96,1.0,0.0,72,0.00,,,0.00,12,WeatherHawk,2013-01-17 15:38:00,
2013-01-17 08:43:00,4.6,-1.0,30.37,East,92,2.0,0.0,77,0.00,,,0.00,12,WeatherHawk,2013-01-17 15:43:00,
2013-01-17 08:48:00,6.4,1.6,30.37,NNE,24,1.0,0.0,80,0.00,,,0.00,63,WeatherHawk,2013-01-17 15:48:00,
2013-01-17 08:53:00,8.8,4.4,30.37,East,84,2.0,0.0,82,0.00,,,0.00,176,WeatherHawk,2013-01-17 15:53:00,
2013-01-17 08:58:00,10.0,4.9,30.37,NNE,20,1.0,0.0,79,0.00,,,0.00,186,WeatherHawk,2013-01-17 15:58:00,
2013-01-17 09:03:00,12.4,6.3,30.37,NE,56,1.0,0.0,76,0.00,,,0.00,193,WeatherHawk,2013-01-17 16:03:00,
2013-01-17 09:08:00,13.6,7.5,30.37,SW,222,1.0,0.0,76,0.00,,,0.00,204,WeatherHawk,2013-01-17 16:08:00,
2013-01-17 09:13:00,14.5,7.2,30.37,SE,124,1.0,0.0,72,0.00,,,0.00,210,WeatherHawk,2013-01-17 16:13:00,
2013-01-17 09:18:00,15.1,8.6,30.37,SW,221,1.0,0.0,75,0.00,,,0.00,220,WeatherHawk,2013-01-17 16:18:00,
2013-01-17 09:23:00,16.2,9.7,30.37,SSW,209,1.0,0.0,75,0.00,,,0.00,227,WeatherHawk,2013-01-17 16:23:00,
2013-01-17 09:28:00,17.1,9.9,30.37,NE,41,2.0,0.0,73,0.00,,,0.00,235,WeatherHawk,2013-01-17 16:28:00,
2013-01-17 09:33:00,17.2,7.5,30.37,NW,316,1.0,0.0,65,0.00,,,0.00,241,WeatherHawk,2013-01-17 16:33:00,
2013-01-17 09:38:00,17.4,10.3,30.37,WNW,283,2.0,0.0,73,0.00,,,0.00,252,WeatherHawk,2013-01-17 16:38:00,
2013-01-17 09:43:00,18.3,8.2,30.37,WNW,287,1.0,0.0,64,0.00,,,0.00,257,WeatherHawk,2013-01-17 16:43:00,
2013-01-17 09:48:00,18.7,8.6,30.37,WNW,290,1.0,0.0,64,0.00,,,0.00,263,WeatherHawk,2013-01-17 16:48:00,
2013-01-17 09:53:00,19.2,9.1,30.37,WNW,285,1.0,0.0,64,0.00,,,0.00,269,WeatherHawk,2013-01-17 16:53:00,
2013-01-17 09:58:00,20.3,9.7,30.37,West,260,1.0,0.0,63,0.00,,,0.00,275,WeatherHawk,2013-01-17 16:58:00,
2013-01-17 10:03:00,20.8,9.5,30.37,West,265,1.0,0.0,61,0.00,,,0.00,280,WeatherHawk,2013-01-17 17:03:00,
2013-01-17 10:08:00,21.7,12.8,30.37,NE,41,1.0,0.0,68,0.00,,,0.00,287,WeatherHawk,2013-01-17 17:08:00,
2013-01-17 10:13:00,23.0,11.2,30.37,NW,305,1.0,0.0,60,0.00,,,0.00,292,WeatherHawk,2013-01-17 17:13:00,
2013-01-17 10:18:00,23.0,11.2,30.37,WNW,295,2.0,0.0,60,0.00,,,0.00,295,WeatherHawk,2013-01-17 17:18:00,
2013-01-17 10:23:00,23.0,11.2,30.36,West,281,2.0,0.0,60,0.00,,,0.00,301,WeatherHawk,2013-01-17 17:23:00,
2013-01-17 10:28:00,23.0,12.7,30.36,NNE,12,1.0,0.0,64,0.00,,,0.00,316,WeatherHawk,2013-01-17 17:28:00,
2013-01-17 10:33:00,23.7,11.1,30.36,WNW,290,1.0,0.0,58,0.00,,,0.00,324,WeatherHawk,2013-01-17 17:33:00,
2013-01-17 10:38:00,23.9,11.7,30.36,WNW,294,1.0,0.0,59,0.00,,,0.00,320,WeatherHawk,2013-01-17 17:38:00,
2013-01-17 10:43:00,23.9,12.4,30.36,NNW,347,2.0,0.0,61,0.00,,,0.00,330,WeatherHawk,2013-01-17 17:43:00,
2013-01-17 10:48:00,23.9,12.4,30.35,ENE,62,1.0,0.0,61,0.00,,,0.00,344,WeatherHawk,2013-01-17 17:48:00,
2013-01-17 10:53:00,25.3,11.9,30.35,West,267,2.0,0.0,56,0.00,,,0.00,364,WeatherHawk,2013-01-17 17:53:00,
2013-01-17 10:58:00,25.3,11.9,30.35,WSW,248,1.0,0.0,56,0.00,,,0.00,367,WeatherHawk,2013-01-17 17:58:00,
2013-01-17 11:03:00,27.5,12.6,30.35,WSW,240,2.0,0.0,53,0.00,,,0.00,374,WeatherHawk,2013-01-17 18:03:00,
2013-01-17 11:08:00,27.3,12.9,30.35,NW,309,1.0,0.0,54,0.00,,,0.00,380,WeatherHawk,2013-01-17 18:08:00,
2013-01-17 11:13:00,28.0,13.1,30.35,NW,321,2.0,0.0,53,0.00,,,0.00,383,WeatherHawk,2013-01-17 18:13:00,
2013-01-17 11:18:00,28.6,13.2,30.35,NNW,341,1.0,0.0,52,0.00,,,0.00,387,WeatherHawk,2013-01-17 18:18:00,
2013-01-17 11:23:00,28.9,12.2,30.34,WNW,284,1.0,0.0,49,0.00,,,0.00,390,WeatherHawk,2013-01-17 18:23:00,
2013-01-17 11:28:00,27.5,10.4,30.34,NW,314,4.0,0.0,48,0.00,,,0.00,391,WeatherHawk,2013-01-17 18:28:00,
2013-01-17 11:33:00,27.1,11.9,30.34,NE,54,1.0,0.0,52,0.00,,,0.00,395,WeatherHawk,2013-01-17 18:33:00,
2013-01-17 11:38:00,28.6,12.3,30.34,North,351,2.0,0.0,50,0.00,,,0.00,398,WeatherHawk,2013-01-17 18:38:00,
2013-01-17 11:43:00,29.5,10.8,30.33,WSW,248,3.0,0.0,45,0.00,,,0.00,400,WeatherHawk,2013-01-17 18:43:00,
2013-01-17 11:48:00,28.6,10.5,30.33,NW,317,1.0,0.0,46,0.00,,,0.00,402,WeatherHawk,2013-01-17 18:48:00,
2013-01-17 11:53:00,28.0,10.4,30.33,WNW,286,3.0,0.0,47,0.00,,,0.00,400,WeatherHawk,2013-01-17 18:53:00,
2013-01-17 11:58:00,27.5,10.4,30.32,NW,321,1.0,0.0,48,0.00,,,0.00,402,WeatherHawk,2013-01-17 18:58:00,
2013-01-17 12:03:00,27.5,9.9,30.32,NW,307,1.0,0.0,47,0.00,,,0.00,403,WeatherHawk,2013-01-17 19:03:00,
2013-01-17 12:08:00,26.8,10.2,30.32,North,350,2.0,0.0,49,0.00,,,0.00,398,WeatherHawk,2013-01-17 19:08:00,
2013-01-17 12:13:00,25.9,8.9,30.32,NNW,328,4.0,0.0,48,0.00,,,0.00,402,WeatherHawk,2013-01-17 19:13:00,
2013-01-17 12:18:00,25.5,9.5,30.32,NNE,22,2.0,0.0,50,0.00,,,0.00,395,WeatherHawk,2013-01-17 19:18:00,
2013-01-17 12:23:00,26.4,9.9,30.32,North,11,2.0,0.0,49,0.00,,,0.00,401,WeatherHawk,2013-01-17 19:23:00,
2013-01-17 12:28:00,27.1,9.6,30.32,NNW,329,3.0,0.0,47,0.00,,,0.00,400,WeatherHawk,2013-01-17 19:28:00,
2013-01-17 12:33:00,26.1,8.6,30.32,NW,308,4.0,0.0,47,0.00,,,0.00,399,WeatherHawk,2013-01-17 19:33:00,
2013-01-17 12:38:00,26.6,8.6,30.32,NNW,333,5.0,0.0,46,0.00,,,0.00,396,WeatherHawk,2013-01-17 19:38:00,
2013-01-17 12:43:00,27.1,9.1,30.32,NW,316,1.0,0.0,46,0.00,,,0.00,394,WeatherHawk,2013-01-17 19:43:00,
2013-01-17 12:48:00,26.2,8.3,30.31,WNW,283,3.0,0.0,46,0.00,,,0.00,391,WeatherHawk,2013-01-17 19:48:00,
2013-01-17 12:53:00,26.2,8.3,30.31,WNW,300,2.0,0.0,46,0.00,,,0.00,388,WeatherHawk,2013-01-17 19:53:00,
2013-01-17 12:58:00,26.8,8.3,30.31,West,275,4.0,0.0,45,0.00,,,0.00,386,WeatherHawk,2013-01-17 19:58:00,
2013-01-17 13:03:00,26.2,9.7,30.31,North,353,1.0,0.0,49,0.00,,,0.00,382,WeatherHawk,2013-01-17 20:03:00,
2013-01-17 13:08:00,27.1,8.6,30.31,WSW,247,1.0,0.0,45,0.00,,,0.00,379,WeatherHawk,2013-01-17 20:08:00,
2013-01-17 13:13:00,27.5,8.5,30.31,WNW,288,3.0,0.0,44,0.00,,,0.00,374,WeatherHawk,2013-01-17 20:13:00,
2013-01-17 13:18:00,28.9,9.3,30.30,WNW,283,2.0,0.0,43,0.00,,,0.00,369,WeatherHawk,2013-01-17 20:18:00,
2013-01-17 13:23:00,30.4,10.1,30.30,SW,215,1.0,0.0,42,0.00,,,0.00,364,WeatherHawk,2013-01-17 20:23:00,
2013-01-17 13:28:00,30.4,9.0,30.30,NW,316,1.0,0.0,40,0.00,,,0.00,360,WeatherHawk,2013-01-17 20:28:00,
2013-01-17 13:33:00,30.4,9.0,30.30,WNW,288,1.0,0.0,40,0.00,,,0.00,355,WeatherHawk,2013-01-17 20:33:00,
2013-01-17 13:38:00,30.2,8.3,30.30,WNW,294,4.0,0.0,39,0.00,,,0.00,349,WeatherHawk,2013-01-17 20:38:00,
2013-01-17 13:43:00,29.7,7.8,30.30,WSW,256,3.0,0.0,39,0.00,,,0.00,340,WeatherHawk,2013-01-17 20:43:00,
2013-01-17 13:48:00,29.5,8.2,30.30,WSW,239,2.0,0.0,40,0.00,,,0.00,336,WeatherHawk,2013-01-17 20:48:00,
2013-01-17 13:53:00,29.8,9.0,30.30,NW,314,3.0,0.0,41,0.00,,,0.00,328,WeatherHawk,2013-01-17 20:53:00,
2013-01-17 13:58:00,31.3,8.7,30.30,SSE,157,2.0,0.0,38,0.00,,,0.00,320,WeatherHawk,2013-01-17 20:58:00,
2013-01-17 14:03:00,31.1,9.1,30.30,SSW,213,2.0,0.0,39,0.00,,,0.00,314,WeatherHawk,2013-01-17 21:03:00,
2013-01-17 14:08:00,30.2,7.7,30.30,SSW,203,4.0,0.0,38,0.00,,,0.00,307,WeatherHawk,2013-01-17 21:08:00,
2013-01-17 14:13:00,30.0,8.7,30.30,SE,146,3.0,0.0,40,0.00,,,0.00,300,WeatherHawk,2013-01-17 21:13:00,
2013-01-17 14:18:00,30.0,8.1,30.30,SW,215,3.0,0.0,39,0.00,,,0.00,290,WeatherHawk,2013-01-17 21:18:00,
2013-01-17 14:23:00,30.2,8.3,30.30,SW,214,1.0,0.0,39,0.00,,,0.00,282,WeatherHawk,2013-01-17 21:23:00,
2013-01-17 14:28:00,30.0,8.1,30.30,SSE,168,2.0,0.0,39,0.00,,,0.00,275,WeatherHawk,2013-01-17 21:28:00,
2013-01-17 14:33:00,30.7,8.2,30.30,SSW,204,5.0,0.0,38,0.00,,,0.00,262,WeatherHawk,2013-01-17 21:33:00,
2013-01-17 14:38:00,30.2,7.7,30.29,SSW,203,3.0,0.0,38,0.00,,,0.00,257,WeatherHawk,2013-01-17 21:38:00,
2013-01-17 14:43:00,30.4,8.4,30.30,SW,227,1.0,0.0,39,0.00,,,0.00,247,WeatherHawk,2013-01-17 21:43:00,
2013-01-17 14:48:00,30.7,8.2,30.29,SE,132,2.0,0.0,38,0.00,,,0.00,239,WeatherHawk,2013-01-17 21:48:00,
2013-01-17 14:53:00,31.5,8.2,30.30,SSE,147,3.0,0.0,37,0.00,,,0.00,229,WeatherHawk,2013-01-17 21:53:00,
2013-01-17 14:58:00,32.0,8.1,30.30,SSW,196,2.0,0.0,36,0.00,,,0.00,221,WeatherHawk,2013-01-17 21:58:00,
2013-01-17 15:03:00,32.2,8.3,30.30,South,183,2.0,0.0,36,0.00,,,0.00,210,WeatherHawk,2013-01-17 22:03:00,
2013-01-17 15:08:00,31.8,7.9,30.30,SSW,195,2.0,0.0,36,0.00,,,0.00,200,WeatherHawk,2013-01-17 22:08:00,
2013-01-17 15:13:00,31.3,8.1,30.29,SSW,208,1.0,0.0,37,0.00,,,0.00,190,WeatherHawk,2013-01-17 22:13:00,
2013-01-17 15:18:00,31.3,7.5,30.30,SSW,197,3.0,0.0,36,0.00,,,0.00,179,WeatherHawk,2013-01-17 22:18:00,
2013-01-17 15:23:00,31.6,8.4,30.29,SE,132,1.0,0.0,37,0.00,,,0.00,170,WeatherHawk,2013-01-17 22:23:00,
2013-01-17 15:28:00,31.8,7.9,30.30,SSW,203,1.0,0.0,36,0.00,,,0.00,159,WeatherHawk,2013-01-17 22:28:00,
2013-01-17 15:33:00,30.9,7.1,30.30,South,171,2.0,0.0,36,0.00,,,0.00,151,WeatherHawk,2013-01-17 22:33:00,
2013-01-17 15:38:00,30.7,8.7,30.30,East,99,1.0,0.0,39,0.00,,,0.00,135,WeatherHawk,2013-01-17 22:38:00,
2013-01-17 15:43:00,31.1,7.9,30.30,WSW,239,2.0,0.0,37,0.00,,,0.00,130,WeatherHawk,2013-01-17 22:43:00,
2013-01-17 15:48:00,31.5,7.6,30.30,SSW,192,2.0,0.0,36,0.00,,,0.00,121,WeatherHawk,2013-01-17 22:48:00,
2013-01-17 15:53:00,30.6,7.4,30.30,SW,227,1.0,0.0,37,0.00,,,0.00,111,WeatherHawk,2013-01-17 22:53:00,
2013-01-17 15:58:00,30.6,7.4,30.30,SE,129,1.0,0.0,37,0.00,,,0.00,101,WeatherHawk,2013-01-17 22:58:00,
2013-01-17 16:03:00,30.4,7.3,30.30,South,185,1.0,0.0,37,0.00,,,0.00,91,WeatherHawk,2013-01-17 23:03:00,
2013-01-17 16:08:00,29.5,6.5,30.30,SSW,192,2.0,0.0,37,0.00,,,0.00,80,WeatherHawk,2013-01-17 23:08:00,
2013-01-17 16:13:00,28.9,6.6,30.30,SW,233,1.0,0.0,38,0.00,,,0.00,28,WeatherHawk,2013-01-17 23:13:00,
2013-01-17 16:18:00,27.7,6.0,30.31,SSW,199,1.0,0.0,39,0.00,,,0.00,11,WeatherHawk,2013-01-17 23:18:00,
2013-01-17 16:23:00,26.4,5.9,30.31,SW,216,1.0,0.0,41,0.00,,,0.00,10,WeatherHawk,2013-01-17 23:23:00,
2013-01-17 16:28:00,26.1,6.1,30.31,South,169,1.0,0.0,42,0.00,,,0.00,8,WeatherHawk,2013-01-17 23:28:00,
2013-01-17 16:33:00,25.9,6.5,30.31,South,177,1.0,0.0,43,0.00,,,0.00,8,WeatherHawk,2013-01-17 23:33:00,
2013-01-17 16:38:00,25.7,6.3,30.31,South,173,1.0,0.0,43,0.00,,,0.00,7,WeatherHawk,2013-01-17 23:38:00,
2013-01-17 16:43:00,25.5,6.2,30.31,SE,134,1.0,0.0,43,0.00,,,0.00,8,WeatherHawk,2013-01-17 23:43:00,
2013-01-17 16:48:00,25.3,6.0,30.31,SE,133,1.0,0.0,43,0.00,,,0.00,5,WeatherHawk,2013-01-17 23:48:00,
2013-01-17 16:53:00,25.2,5.8,30.31,East,80,1.0,0.0,43,0.00,,,0.00,5,WeatherHawk,2013-01-17 23:53:00,
2013-01-17 16:58:00,24.8,6.0,30.31,ESE,109,2.0,0.0,44,0.00,,,0.00,4,WeatherHawk,2013-01-17 23:58:00,
2013-01-17 17:03:00,24.6,5.9,30.31,ENE,78,1.0,0.0,44,0.00,,,0.00,3,WeatherHawk,2013-01-18 00:03:00,
2013-01-17 17:08:00,24.1,5.8,30.31,ESE,115,2.0,0.0,45,0.00,,,0.00,2,WeatherHawk,2013-01-18 00:08:00,
2013-01-17 17:13:00,23.5,5.8,30.31,East,85,1.0,0.0,46,0.00,,,0.00,1,WeatherHawk,2013-01-18 00:13:00,
2013-01-17 17:18:00,23.9,6.2,30.31,ESE,107,2.0,0.0,46,0.00,,,0.00,0,WeatherHawk,2013-01-18 00:18:00,
2013-01-17 17:23:00,23.5,5.8,30.31,East,83,1.0,0.0,46,0.00,,,0.00,0,WeatherHawk,2013-01-18 00:23:00,
2013-01-17 17:28:00,23.5,5.8,30.31,East,79,1.0,0.0,46,0.00,,,0.00,0,WeatherHawk,2013-01-18 00:28:00,
2013-01-17 17:33:00,22.8,6.1,30.31,ENE,57,1.0,0.0,48,0.00,,,0.00,0,WeatherHawk,2013-01-18 00:33:00,
2013-01-17 17:38:00,21.6,5.4,30.31,SE,145,1.0,0.0,49,0.00,,,0.00,0,WeatherHawk,2013-01-18 00:38:00,
2013-01-17 17:43:00,20.1,4.5,30.31,SSE,155,1.0,0.0,50,0.00,,,0.00,0,WeatherHawk,2013-01-18 00:43:00,
2013-01-17 17:48:00,19.9,4.8,30.31,East,100,2.0,0.0,51,0.00,,,0.00,0,WeatherHawk,2013-01-18 00:48:00,
2013-01-17 17:53:00,19.9,5.2,30.31,SW,216,1.0,0.0,52,0.00,,,0.00,0,WeatherHawk,2013-01-18 00:53:00,
2013-01-17 17:58:00,19.4,5.1,30.31,NE,38,1.0,0.0,53,0.00,,,0.00,0,WeatherHawk,2013-01-18 00:58:00,
2013-01-17 18:03:00,19.2,4.9,30.31,NNE,25,0.0,0.0,53,0.00,,,0.00,0,WeatherHawk,2013-01-18 01:03:00,
2013-01-17 18:08:00,18.5,4.7,30.31,ENE,68,1.0,0.0,54,0.00,,,0.00,0,WeatherHawk,2013-01-18 01:08:00,
2013-01-17 18:13:00,18.3,4.5,30.31,WNW,303,0.0,0.0,54,0.00,,,0.00,0,WeatherHawk,2013-01-18 01:13:00,
2013-01-17 18:19:00,18.0,4.2,30.31,NW,312,1.0,0.0,54,0.00,,,0.00,0,WeatherHawk,2013-01-18 01:19:00,
2013-01-17 18:24:00,16.9,3.9,30.31,SSW,196,1.0,0.0,56,0.00,,,0.00,0,WeatherHawk,2013-01-18 01:24:00,
2013-01-17 18:29:00,16.0,3.1,30.31,SE,131,2.0,0.0,56,0.00,,,0.00,1,WeatherHawk,2013-01-18 01:29:00,
2013-01-17 18:34:00,15.6,3.1,30.31,ENE,73,1.0,0.0,57,0.00,,,0.00,0,WeatherHawk,2013-01-18 01:34:00,
2013-01-17 18:39:00,16.3,4.2,30.31,ENE,59,2.0,0.0,58,0.00,,,0.00,0,WeatherHawk,2013-01-18 01:39:00,
2013-01-17 18:44:00,16.5,4.0,30.31,ENE,70,1.0,0.0,57,0.00,,,0.00,0,WeatherHawk,2013-01-18 01:44:00,
2013-01-17 18:49:00,16.0,3.5,30.31,ESE,102,1.0,0.0,57,0.00,,,0.00,0,WeatherHawk,2013-01-18 01:49:00,
2013-01-17 18:54:00,15.8,3.7,30.31,East,92,1.0,0.0,58,0.00,,,0.00,0,WeatherHawk,2013-01-18 01:54:00,
2013-01-17 18:59:00,15.4,3.0,30.31,ESE,119,2.0,0.0,57,0.00,,,0.00,0,WeatherHawk,2013-01-18 01:59:00,
2013-01-17 19:04:00,15.1,3.4,30.31,North,4,1.0,0.0,59,0.00,,,0.00,0,WeatherHawk,2013-01-18 02:04:00,
2013-01-17 19:09:00,15.4,3.3,30.31,ESE,106,1.0,0.0,58,0.00,,,0.00,0,WeatherHawk,2013-01-18 02:09:00,
2013-01-17 19:14:00,15.3,3.5,30.31,NE,48,1.0,0.0,59,0.00,,,0.00,0,WeatherHawk,2013-01-18 02:14:00,
2013-01-17 19:19:00,15.4,3.7,30.31,SE,126,1.0,0.0,59,0.00,,,0.00,1,WeatherHawk,2013-01-18 02:19:00,
2013-01-17 19:24:00,15.4,3.3,30.31,SSE,160,0.0,0.0,58,0.00,,,0.00,0,WeatherHawk,2013-01-18 02:24:00,
2013-01-17 19:29:00,14.7,2.7,30.31,NNE,23,1.0,0.0,58,0.00,,,0.00,0,WeatherHawk,2013-01-18 02:29:00,
2013-01-17 19:34:00,14.2,2.1,30.31,ESE,121,1.0,0.0,58,0.00,,,0.00,0,WeatherHawk,2013-01-18 02:34:00,
2013-01-17 19:39:00,13.3,2.0,30.31,NW,316,0.0,0.0,60,0.00,,,0.00,0,WeatherHawk,2013-01-18 02:39:00,
2013-01-17 19:44:00,14.0,2.7,30.31,East,83,1.0,0.0,60,0.00,,,0.00,0,WeatherHawk,2013-01-18 02:44:00,
2013-01-17 19:49:00,14.0,2.7,30.31,NNE,24,1.0,0.0,60,0.00,,,0.00,0,WeatherHawk,2013-01-18 02:49:00,
2013-01-17 19:54:00,13.8,2.2,30.32,East,85,1.0,0.0,59,0.00,,,0.00,0,WeatherHawk,2013-01-18 02:54:00,
2013-01-17 19:59:00,13.6,2.7,30.32,ENE,73,1.0,0.0,61,0.00,,,0.00,0,WeatherHawk,2013-01-18 02:59:00,
2013-01-17 20:04:00,14.0,2.7,30.32,NE,56,2.0,0.0,60,0.00,,,0.00,0,WeatherHawk,2013-01-18 03:04:00,
2013-01-17 20:09:00,14.0,2.7,30.32,NE,56,2.0,0.0,60,0.00,,,0.00,0,WeatherHawk,2013-01-18 03:09:00,
2013-01-17 20:14:00,14.4,3.0,30.32,SSE,147,1.0,0.0,60,0.00,,,0.00,0,WeatherHawk,2013-01-18 03:14:00,
2013-01-17 20:19:00,12.7,1.5,30.32,SE,145,1.0,0.0,60,0.00,,,0.00,1,WeatherHawk,2013-01-18 03:19:00,
2013-01-17 20:24:00,12.2,1.4,30.31,ENE,70,2.0,0.0,61,0.00,,,0.00,0,WeatherHawk,2013-01-18 03:24:00,
2013-01-17 20:29:00,12.4,2.6,30.31,SSE,156,1.0,0.0,64,0.00,,,0.00,0,WeatherHawk,2013-01-18 03:29:00,
2013-01-17 20:34:00,12.0,1.9,30.31,ENE,57,1.0,0.0,63,0.00,,,0.00,0,WeatherHawk,2013-01-18 03:34:00,
2013-01-17 20:39:00,12.0,2.5,30.31,ENE,64,2.0,0.0,65,0.00,,,0.00,0,WeatherHawk,2013-01-18 03:39:00,
2013-01-17 20:44:00,12.4,2.2,30.31,SE,129,1.0,0.0,63,0.00,,,0.00,0,WeatherHawk,2013-01-18 03:44:00,
2013-01-17 20:49:00,11.7,1.5,30.31,SE,126,1.0,0.0,63,0.00,,,0.00,0,WeatherHawk,2013-01-18 03:49:00,
2013-01-17 20:54:00,11.8,2.4,30.31,NE,53,2.0,0.0,65,0.00,,,0.00,0,WeatherHawk,2013-01-18 03:54:00,
2013-01-17 20:59:00,12.2,2.4,30.31,SW,223,1.0,0.0,64,0.00,,,0.00,0,WeatherHawk,2013-01-18 03:59:00,
2013-01-17 21:04:00,10.6,0.2,30.31,ESE,113,2.0,0.0,62,0.00,,,0.00,0,WeatherHawk,2013-01-18 04:04:00,
2013-01-17 21:09:00,9.5,0.5,30.31,East,90,2.0,0.0,66,0.00,,,0.00,0,WeatherHawk,2013-01-18 04:09:00,
2013-01-17 21:14:00,10.4,2.0,30.31,ENE,59,1.0,0.0,68,0.00,,,0.00,0,WeatherHawk,2013-01-18 04:14:00,
2013-01-17 21:19:00,11.8,2.4,30.31,ENE,62,2.0,0.0,65,0.00,,,0.00,0,WeatherHawk,2013-01-18 04:19:00,
2013-01-17 21:24:00,11.7,2.5,30.31,ESE,111,1.0,0.0,66,0.00,,,0.00,0,WeatherHawk,2013-01-18 04:24:00,
2013-01-17 21:29:00,11.1,1.4,30.31,SSE,147,1.0,0.0,64,0.00,,,0.00,0,WeatherHawk,2013-01-18 04:29:00,
2013-01-17 21:34:00,10.8,1.3,30.31,East,95,2.0,0.0,65,0.00,,,0.00,0,WeatherHawk,2013-01-18 04:34:00,
2013-01-17 21:39:00,10.8,1.7,30.31,ENE,77,1.0,0.0,66,0.00,,,0.00,1,WeatherHawk,2013-01-18 04:39:00,
2013-01-17 21:44:00,10.9,2.2,30.31,East,83,2.0,0.0,67,0.00,,,0.00,0,WeatherHawk,2013-01-18 04:44:00,
2013-01-17 21:49:00,10.9,1.5,30.31,SW,217,2.0,0.0,65,0.00,,,0.00,0,WeatherHawk,2013-01-18 04:49:00,
2013-01-17 21:54:00,9.3,0.0,30.31,East,98,2.0,0.0,65,0.00,,,0.00,0,WeatherHawk,2013-01-18 04:54:00,
2013-01-17 21:59:00,9.3,0.9,30.30,East,90,1.0,0.0,68,0.00,,,0.00,1,WeatherHawk,2013-01-18 04:59:00,
2013-01-17 22:00:00,9.3,1.2,30.30,ENE,71,2.0,0.0,69,0.00,,,0.00,0,WeatherHawk,2013-01-18 05:00:00,
2013-01-17 22:02:00,9.7,1.3,30.30,SE,131,1.0,0.0,68,0.00,,,0.00,0,WeatherHawk,2013-01-18 05:02:00,
2013-01-17 22:04:00,9.5,0.8,30.30,ESE,108,1.0,0.0,67,0.00,,,0.00,0,WeatherHawk,2013-01-18 05:04:00,
2013-01-17 22:09:00,9.9,1.4,30.30,ESE,113,1.0,0.0,68,0.00,,,0.00,0,WeatherHawk,2013-01-18 05:09:00,
2013-01-17 22:14:00,10.0,1.3,30.30,ENE,59,1.0,0.0,67,0.00,,,0.00,0,WeatherHawk,2013-01-18 05:14:00,
2013-01-17 22:19:00,10.4,1.6,30.30,NE,51,2.0,0.0,67,0.00,,,0.00,1,WeatherHawk,2013-01-18 05:19:00,
2013-01-17 22:24:00,10.6,1.5,30.30,NNE,31,1.0,0.0,66,0.00,,,0.00,2,WeatherHawk,2013-01-18 05:24:00,
2013-01-17 22:29:00,10.2,1.2,30.30,SE,124,1.0,0.0,66,0.00,,,0.00,0,WeatherHawk,2013-01-18 05:29:00,
2013-01-17 22:34:00,10.0,1.6,30.30,NE,52,1.0,0.0,68,0.00,,,0.00,1,WeatherHawk,2013-01-18 05:34:00,
2013-01-17 22:39:00,10.6,1.2,30.30,SE,124,1.0,0.0,65,0.00,,,0.00,0,WeatherHawk,2013-01-18 05:39:00,
2013-01-17 22:44:00,8.8,-0.2,30.30,SE,143,2.0,0.0,66,0.00,,,0.00,0,WeatherHawk,2013-01-18 05:44:00,
2013-01-17 22:49:00,8.2,-0.1,30.30,ENE,72,1.0,0.0,68,0.00,,,0.00,0,WeatherHawk,2013-01-18 05:49:00,
2013-01-17 22:54:00,9.3,1.2,30.30,NNE,26,2.0,0.0,69,0.00,,,0.00,0,WeatherHawk,2013-01-18 05:54:00,
2013-01-17 22:59:00,9.3,0.3,30.30,ESE,113,1.0,0.0,66,0.00,,,0.00,0,WeatherHawk,2013-01-18 05:59:00,
2013-01-17 23:04:00,8.6,0.5,30.30,ESE,117,2.0,0.0,69,0.00,,,0.00,0,WeatherHawk,2013-01-18 06:04:00,
2013-01-17 23:09:00,9.0,0.9,30.30,East,100,2.0,0.0,69,0.00,,,0.00,0,WeatherHawk,2013-01-18 06:09:00,
2013-01-17 23:14:00,9.3,1.2,30.30,East,80,2.0,0.0,69,0.00,,,0.00,0,WeatherHawk,2013-01-18 06:14:00,
2013-01-17 23:19:00,9.7,1.6,30.30,East,81,2.0,0.0,69,0.00,,,0.00,0,WeatherHawk,2013-01-18 06:19:00,
2013-01-17 23:24:00,10.4,1.6,30.30,NNE,16,1.0,0.0,67,0.00,,,0.00,0,WeatherHawk,2013-01-18 06:24:00,
2013-01-17 23:29:00,9.7,0.0,30.30,ESE,113,1.0,0.0,64,0.00,,,0.00,0,WeatherHawk,2013-01-18 06:29:00,
2013-01-17 23:34:00,7.9,-0.5,30.30,East,81,2.0,0.0,68,0.00,,,0.00,0,WeatherHawk,2013-01-18 06:34:00,
2013-01-17 23:39:00,8.4,1.0,30.29,SE,130,1.0,0.0,71,0.00,,,0.00,0,WeatherHawk,2013-01-18 06:39:00,
2013-01-17 23:44:00,9.3,0.9,30.30,East,96,1.0,0.0,68,0.00,,,0.00,0,WeatherHawk,2013-01-18 06:44:00,
2013-01-17 23:49:00,9.3,0.3,30.29,SW,230,1.0,0.0,66,0.00,,,0.00,0,WeatherHawk,2013-01-18 06:49:00,
2013-01-17 23:54:00,9.0,-0.1,30.29,SW,218,1.0,0.0,66,0.00,,,0.00,1,WeatherHawk,2013-01-18 06:54:00,
2013-01-17 23:59:00,8.1,-0.3,30.29,ENE,70,2.0,0.0,68,0.00,,,0.00,0,WeatherHawk,2013-01-18 06:59:00,